Tracking 35035 objects as of 16-Aug-2026
HD Live streaming from Space Station
objects crossing your sky now

OCS


OCS is no longer on orbit


NORAD ID: 26062
Int'l Code: 2000-004B
Launch date: January 27, 2000
Source: United States (US)
Launch site: AIR FORCE WESTERN TEST RANGE (AFWTR)
Decay date: 2001-03-05
Your satellite tracking list
Your tracking list is empty




NASA's NSSDC Master Catalog

Two Line Element Set (TLE):
1 26062U 00004B   01064.23572161  .92368558  37808-5  44568-1 0  9993
2 26062 100.1746 000.8731 0029957 169.7092 190.6323 16.20008589 58862
Source of the keplerian elements: AFSPC